GW0293 Weather Reports


Display with metric or nautical units.
time (UTC)temp
F
wind
direction
speed
MPH
gust
MPH
rain 1hr
in
rain 24hr
in
rain mn
in
humidity
%
barometer
mb
20260504234536 53 0 0.0 0.0 0.00 0.28 0.07 64 1006.1
20260504233035 54 0 0.0 0.0 0.00 0.28 0.07 62 1006.0
20260504231541 55 0 0.0 0.0 0.00 0.28 0.07 59 1005.9
20260504230041 56 0 0.0 0.0 0.00 0.28 0.07 58 1005.7
20260504224537 56 0 0.0 0.0 0.00 0.35 0.07 56 1005.6
20260504223036 57 0 0.0 0.0 0.00 0.35 0.07 56 1005.5
20260504221546 58 0 0.0 0.0 0.00 0.35 0.07 53 1005.3
20260504220049 58 0 0.0 0.0 0.00 0.35 0.07 55 1005.2
20260504214537 58 0 0.0 0.0 0.00 0.39 0.07 53 1005.2
20260504213051 58 0 0.0 0.0 0.00 0.39 0.07 54 1005.4
20260504211540 59 0 0.0 0.0 0.00 0.39 0.07 54 1005.4
20260504210047 60 0 0.0 0.0 0.00 0.39 0.07 54 1005.0
20260504204544 60 0 0.0 0.0 0.00 0.55 0.07 57 1004.8
20260504203041 60 0 0.0 0.0 0.00 0.55 0.07 55 1004.7
20260504201535 62 0 0.0 0.0 0.00 0.55 0.07 51 1004.2
20260504200036 62 0 0.0 0.0 0.00 0.55 0.07 48 1003.9
20260504194542 63 0 0.0 0.0 0.00 0.93 0.07 45 1003.9
20260504193055 63 0 0.0 0.0 0.00 0.93 0.07 43 1003.9
20260504191542 63 0 0.0 0.0 0.00 0.93 0.07 44 1003.9
20260504190042 62 0 0.0 0.0 0.00 0.93 0.07 42 1003.9
20260504184535 62 0 0.0 0.0 0.00 1.10 0.07 40 1003.8
20260504183056 61 0 0.0 0.0 0.00 1.10 0.07 38 1003.8
20260504181544 61 0 0.0 0.0 0.00 1.10 0.07 38 1004.1
20260504180112 61 0 0.0 0.0 0.00 1.10 0.07 41 1004.1
20260504174537 61 0 0.0 0.0 0.00 1.25 0.07 42 1004.0
20260504173035 61 0 0.0 0.0 0.00 1.25 0.07 43 1003.9
20260504171548 60 0 0.0 0.0 0.00 1.25 0.07 39 1004.0
20260504081535 41 0 0.0 0.0 0.00 1.45 0.07 93 997.9
20260504044538 37 0 0.0 0.0 0.01 1.41 0.03 94 994.2
20260504043043 37 0 0.0 0.0 0.02 1.41 0.03 94 994.1
20260504041536 37 0 0.0 0.0 0.02 1.41 0.03 94 993.7
20260504040052 37 0 0.0 0.0 0.02 1.40 0.02 94 993.3
20260504034547 37 0 0.0 0.0 0.02 1.40 0.02 94 992.9
20260504033040 36 0 0.0 0.0 0.01 1.39 0.01 95 992.5
20260504031536 36 0 0.0 0.0 0.01 1.39 0.01 94 992.3
20260504030042 36 0 0.0 0.0 0.01 1.38 0.00 94 991.8
20260504024541 36 0 0.0 0.0 0.01 1.38 1.38 94 991.4
20260504023038 36 0 0.0 0.0 0.02 1.38 1.38 95 990.8
20260504021537 36 0 0.0 0.0 0.03 1.38 1.38 95 990.7
20260504020041 36 0 0.0 0.0 0.06 1.37 1.37 95 990.1
20260504014538 36 0 0.0 0.0 0.10 1.37 1.37 95 989.8
20260504013036 35 0 0.0 0.0 0.12 1.36 1.36 95 989.3
20260504011542 35 0 0.0 0.0 0.12 1.35 1.35 95 989.0
20260504010035 35 0 0.0 0.0 0.10 1.31 1.31 94 988.7
20260504004536 37 0 0.0 0.0 0.07 1.27 1.27 94 988.4
20260504003036 37 0 0.0 0.0 0.05 1.24 1.24 94 987.6
20260504001538 37 0 0.0 0.0 0.05 1.23 1.23 94 986.7
20260504000046 38 0 0.0 0.0 0.04 1.21 1.21 94 986.3